Scottsbluff, NE

11:44 PM MDT on October 15, 2019 (GMT -0600)
Heilig

Weather History for KBFF - August, 2019

Change the Weather History Date:

Thursday, August 29, 2019

  Actual Average Record
Temperature  
Mean Temperature 67 °F -  
Max Temperature 82 °F 88 °F 104 °F (1898)
Min Temperature 52 °F 54 °F 39 °F (1915)
Cooling Degree Days 2    
Growing Degree Days 17 (Base 50)    
Moisture  
Dew Point 50 °F    
Average Humidity 58    
Maximum Humidity 93    
Minimum Humidity 24    
Precipitation  
Precipitation 0.00 in - - ()
Sea Level Pressure  
Sea Level Pressure 29.99 in    
Wind  
Wind Speed 7 mph (NE)    
Max Wind Speed 14 mph    
Max Gust Speed 21 mph    
Visibility 10 miles    
Events      
Averages and records for this station are not official NWS values.
T = Trace of Precipitation, MM = Missing Value Source: NWS Daily Summary

Daily Weather History Graph

Daily Weather History Graph

Search for Another Location

Airport or City:

Astronomy

Aug. 29, 2019 Rise Set
Actual Time 6:16 AM MDT 7:33 PM MDT
Civil Twilight 5:48 AM MDT 8:01 PM MDT
Nautical Twilight 5:13 AM MDT 8:36 PM MDT
Astronomical Twilight 4:36 AM MDT 9:12 PM MDT
Moon 5:03 AM MDT (8/29) 7:32 PM MDT (8/29)
Length of Visible Light 14h 13m
Length of Day
13h 16m
Waning Crescent, 1% of the Moon is Illuminated
Aug 29
Waning Crescent
Aug 30
New
Sep 5
First Quarter
Sep 13
Full
Sep 21
Last Quarter

Hourly Weather History & Observations

Time (MDT) Temp. Dew Point Humidity Pressure Visibility Wind Dir Wind Speed Gust Speed Precip Events Conditions
3:53 AM 55.0 °F 51.1 °F 86% 29.82 in 10.0 mi Calm Calm - N/A   Clear
4:53 AM 53.1 °F 51.1 °F 93% 29.85 in 10.0 mi North 5.8 mph - N/A   Clear
5:53 AM 54.0 °F 52.0 °F 93% 29.88 in 10.0 mi West 5.8 mph - N/A   Clear
6:53 AM 53.1 °F 51.1 °F 93% 29.92 in 10.0 mi NNW 6.9 mph - N/A   Clear
7:53 AM 57.9 °F 52.0 °F 81% 29.96 in 10.0 mi WNW 9.2 mph - N/A   Clear
8:53 AM 66.9 °F 53.1 °F 61% 29.97 in 10.0 mi Variable 6.9 mph - N/A   Clear
9:53 AM 73.0 °F 50.0 °F 44% 29.99 in 10.0 mi North 12.7 mph - N/A   Clear
10:53 AM 75.0 °F 50.0 °F 41% 30.01 in 10.0 mi NNE 13.8 mph 19.6 mph N/A   Clear
11:53 AM 78.1 °F 48.0 °F 35% 30.02 in 10.0 mi NE 12.7 mph 20.7 mph N/A   Clear
12:53 PM 79.0 °F 48.0 °F 34% 30.02 in 10.0 mi East 8.1 mph - N/A   Clear
1:53 PM 80.1 °F 48.9 °F 34% 30.02 in 10.0 mi East 10.4 mph - N/A   Clear
2:53 PM 80.1 °F 48.9 °F 34% 30.01 in 10.0 mi North - - N/A   Clear
3:53 PM 81.0 °F 50.0 °F 34% 30.01 in 10.0 mi ENE 11.5 mph - N/A   Clear
4:53 PM 80.1 °F 51.1 °F 36% 30.00 in 10.0 mi East 12.7 mph - N/A   Clear
5:53 PM 78.1 °F 50.0 °F 37% 30.00 in 10.0 mi East 11.5 mph - N/A   Clear
6:53 PM 73.9 °F 53.1 °F 48% 30.03 in 10.0 mi East 9.2 mph - N/A   Clear
7:53 PM 66.0 °F 52.0 °F 60% 30.05 in 10.0 mi East 8.1 mph - N/A   Clear
8:53 PM 63.0 °F 50.0 °F 63% 30.04 in 10.0 mi ENE 9.2 mph - N/A   Clear
9:53 PM 60.1 °F 50.0 °F 69% 30.07 in 10.0 mi Calm Calm - N/A   Clear
10:53 PM 57.0 °F 50.0 °F 77% 30.09 in 10.0 mi East 3.5 mph - N/A   Clear
11:53 PM 55.9 °F 50.0 °F 80% 30.07 in 10.0 mi East 8.1 mph - N/A   Clear